METEOSAT-9 (MSG-2)

Last updated on Aug. 14, 2020, 5:30 a.m. UTC

1 28912U 05049B   20226.05357553  .00000019  00000-0  00000+0 0  9994
2 28912   4.5403  69.9137 0001932  25.6387 249.0991  1.00276688 53674
UTC
Height (km)
Latitude
Longitude
Inclination
Orbital Period
UTC large
Height (km)
Speed (km/s)
/
Latitude / Longitude
Inclination (degrees)
Orbital Period (minutes)
Azimuth
Elevation
Range (km)
Doppler Factor
iOS Compass Heading
iOS Angle

Next 30 passes for location: Hong Kong

Rise time Rise Azimuth (degrees) Set time Set Azimuth (degrees) Duration Max altitude (degrees)

No matching passes for this satellites